,,Stat5,,Stat1,,Stat2,,Stat3,,Stat4,,Wind1,,Wind1,
time,status,PA1M_AVG,status,PR1M_SUM,status,RH1M_AVG,status,SR1M_AVG,status,TA1M_AVG,status,W1dAve1m,status,W1sAve1m,
2000-12-20, 00:00:00,VALID,916.591,VALID,0,VALID,99.5692,VALID,0,VALID,19.1801,VALID,172,VALID,0.348307,
2000-12-20, 00:01:00,VALID,916.583,VALID,0,VALID,99.5654,VALID,0,VALID,19.1835,VALID,234,VALID,0.714227,
2000-12-20, 00:02:00,VALID,916.587,VALID,0,VALID,99.5539,VALID,0.0169808,VALID,19.1704,VALID,119,VALID,0.682589,
2000-12-20, 00:03:00,VALID,916.564,VALID,0,VALID,99.5679,VALID,0,VALID,19.1639,VALID,120,VALID,1.06785,
2000-12-20, 00:04:00,VALID,916.563,VALID,0,VALID,99.5806,VALID,0,VALID,19.1937,VALID,114,VALID,0.813151,
2000-12-20, 00:05:00,VALID,916.563,VALID,0,VALID,99.5794,VALID,0.0169808,VALID,19.1902,VALID,113,VALID,0.303454,
2000-12-20, 00:06:00,VALID,916.561,VALID,0,VALID,99.5806,VALID,0,VALID,19.197,VALID,181,VALID,0.0449811,
2000-12-20, 00:07:00,VALID,916.554,VALID,0,VALID,99.5755,VALID,0.0169808,VALID,19.2235,VALID,268,VALID,0.0853207,
2000-12-20, 00:08:00,VALID,916.564,VALID,0,VALID,99.5743,VALID,0,VALID,19.1937,VALID,302,VALID,0.307943,
2000-12-20, 00:09:00,VALID,916.564,VALID,0,VALID,99.587,VALID,0,VALID,19.1873,VALID,48,VALID,0.588049,
2000-12-20, 00:10:00,VALID,916.537,VALID,0,VALID,99.5743,VALID,0.0169808,VALID,19.1773,VALID,94,VALID,0.292146,
2000-12-20, 00:11:00,VALID,916.547,VALID,0,VALID,99.5857,VALID,0,VALID,19.1905,VALID,147,VALID,0.0564236,
2000-12-20, 00:12:00,VALID,916.535,VALID,0,VALID,99.5895,VALID,0,VALID,19.2002,VALID,245,VALID,0.272804,
2000-12-20, 00:13:00,VALID,916.554,VALID,0,VALID,99.5921,VALID,0,VALID,19.2131,VALID,148,VALID,0.213542,
2000-12-20, 00:14:00,VALID,916.541,VALID,0,VALID,99.587,VALID,0,VALID,19.2295,VALID,182,VALID,0.169347,
2000-12-20, 00:15:00,VALID,916.534,VALID,0,VALID,99.5704,VALID,0,VALID,19.2099,VALID,240,VALID,0.512952,
2000-12-20, 00:16:00,VALID,916.513,VALID,0,VALID,99.5832,VALID,0,VALID,19.1806,VALID,294,VALID,0.828795,
2000-12-20, 00:17:00,VALID,916.514,VALID,0,VALID,99.5819,VALID,0.0169808,VALID,19.1776,VALID,16,VALID,1.0089,
2000-12-20, 00:18:00,VALID,916.506,VALID,0,VALID,99.5883,VALID,-0.0169808,VALID,19.1713,VALID,127,VALID,1.18859,
2000-12-20, 00:19:00,VALID,916.488,VALID,0,VALID,99.5857,VALID,0,VALID,19.1579,VALID,359,VALID,0.41059,
2000-12-20, 00:20:00,VALID,916.521,VALID,0,VALID,99.5895,VALID,0,VALID,19.148,VALID,322,VALID,1.50822,
2000-12-20, 00:21:00,VALID,916.488,VALID,0,VALID,99.5997,VALID,0,VALID,19.1413,VALID,303,VALID,0.758681,
2000-12-20, 00:22:00,VALID,916.483,VALID,0,VALID,99.5997,VALID,0,VALID,19.1614,VALID,129,VALID,0.910807,
2000-12-20, 00:23:00,VALID,916.453,VALID,0,VALID,99.6022,VALID,0,VALID,19.1545,VALID,97,VALID,0.780633,
2000-12-20, 00:24:00,VALID,916.443,VALID,0,VALID,99.6099,VALID,0.0169808,VALID,19.1644,VALID,102,VALID,0.664063,
2000-12-20, 00:25:00,VALID,916.454,VALID,0,VALID,99.6035,VALID,-0.0339617,VALID,19.1808,VALID,197,VALID,0.65266,
2000-12-20, 00:26:00,VALID,916.42,VALID,0,VALID,99.6061,VALID,0.0169808,VALID,19.1746,VALID,259,VALID,1.03883,
2000-12-20, 00:27:00,VALID,916.409,VALID,0,VALID,99.6099,VALID,0,VALID,19.1813,VALID,237,VALID,0.189823,
2000-12-20, 00:28:00,VALID,916.396,VALID,0,VALID,99.6099,VALID,0,VALID,19.1776,VALID,96,VALID,0.742588,
2000-12-20, 00:29:00,VALID,916.392,VALID,0,VALID,99.6264,VALID,0,VALID,19.1937,VALID,317,VALID,0.254464,
2000-12-20, 00:30:00,VALID,916.39,VALID,0,VALID,99.6162,VALID,0.0169808,VALID,19.1905,VALID,232,VALID,0.268914,
2000-12-20, 00:31:00,VALID,916.391,VALID,0,VALID,99.6239,VALID,0,VALID,19.191,VALID,286,VALID,0.295536,
2000-12-20, 00:32:00,VALID,916.386,VALID,0,VALID,99.6289,VALID,0.0169808,VALID,19.1999,VALID,95,VALID,0.0403646,
2000-12-20, 00:33:00,VALID,916.388,VALID,0,VALID,99.6328,VALID,0,VALID,19.2131,VALID,127,VALID,0.0848524,
2000-12-20, 00:34:00,VALID,916.392,VALID,0,VALID,99.6226,VALID,0.0169808,VALID,19.2163,VALID,162,VALID,0.630425,
2000-12-20, 00:35:00,VALID,916.378,VALID,0,VALID,99.6289,VALID,0,VALID,19.2037,VALID,311,VALID,0.99116,
2000-12-20, 00:36:00,VALID,916.383,VALID,0,VALID,99.6391,VALID,0,VALID,19.1902,VALID,86,VALID,0.309245,
2000-12-20, 00:37:00,VALID,916.383,VALID,0,VALID,99.6366,VALID,0.0169808,VALID,19.1997,VALID,238,VALID,0.124566,
2000-12-20, 00:38:00,VALID,916.386,VALID,0.2,VALID,99.6391,VALID,0,VALID,19.2233,VALID,157,VALID,0.000822368,
2000-12-20, 00:39:00,VALID,916.388,VALID,0,VALID,99.6315,VALID,0,VALID,19.2295,VALID,219,VALID,0.00602679,
2000-12-20, 00:40:00,VALID,916.367,VALID,0,VALID,99.6366,VALID,0,VALID,19.2161,VALID,152,VALID,0.63978,
2000-12-20, 00:41:00,VALID,916.361,VALID,0,VALID,99.6455,VALID,0.0169808,VALID,19.2161,VALID,212,VALID,0.511489,
2000-12-20, 00:42:00,VALID,916.37,VALID,0,VALID,99.6315,VALID,0.0339617,VALID,19.2057,VALID,258,VALID,0.751267,
2000-12-20, 00:43:00,VALID,916.368,VALID,0,VALID,99.6328,VALID,0.0169808,VALID,19.2029,VALID,181,VALID,0.35016,
2000-12-20, 00:44:00,VALID,916.352,VALID,0,VALID,99.6366,VALID,0,VALID,19.2066,VALID,119,VALID,0.00246711,
2000-12-20, 00:45:00,VALID,916.371,VALID,0,VALID,99.6366,VALID,0.0169808,VALID,19.2099,VALID,169,VALID,0.035773,
2000-12-20, 00:46:00,VALID,916.352,VALID,0,VALID,99.6366,VALID,0.0169808,VALID,19.1999,VALID,119,VALID,0.253125,
2000-12-20, 00:47:00,VALID,916.358,VALID,0,VALID,99.6468,VALID,0.0169808,VALID,19.1997,VALID,227,VALID,0.266927,
2000-12-20, 00:48:00,VALID,916.348,VALID,0,VALID,99.6493,VALID,-0.0169808,VALID,19.2064,VALID,166,VALID,1.38585,
2000-12-20, 00:49:00,VALID,916.294,VALID,0,VALID,99.6378,VALID,-0.0169808,VALID,19.1808,VALID,116,VALID,1.16992,
2000-12-20, 00:50:00,VALID,916.269,VALID,0,VALID,99.6328,VALID,-0.101885,VALID,19.1626,VALID,66,VALID,0.527755,
2000-12-20, 00:51:00,VALID,916.289,VALID,0,VALID,99.6378,VALID,-0.101885,VALID,19.1596,VALID,92,VALID,1.19683,
2000-12-20, 00:52:00,VALID,916.28,VALID,0,VALID,99.6328,VALID,-0.152827,VALID,19.1502,VALID,226,VALID,0.603516,
2000-12-20, 00:53:00,VALID,916.286,VALID,0,VALID,99.6022,VALID,-0.101885,VALID,19.1049,VALID,125,VALID,1.00596,
2000-12-20, 00:54:00,VALID,916.268,VALID,0,VALID,99.6264,VALID,-0.101885,VALID,19.1082,VALID,83,VALID,1.00022,
2000-12-20, 00:55:00,VALID,916.256,VALID,0,VALID,99.6213,VALID,-0.101885,VALID,19.0883,VALID,98,VALID,0.787584,
2000-12-20, 00:56:00,VALID,916.26,VALID,0,VALID,99.6175,VALID,-0.118866,VALID,19.0369,VALID,57,VALID,1.45611,
2000-12-20, 00:57:00,VALID,916.246,VALID,0,VALID,99.6353,VALID,-0.118866,VALID,19.047,VALID,73,VALID,0.670186,
2000-12-20, 00:58:00,VALID,916.267,VALID,0,VALID,99.6328,VALID,-0.118866,VALID,19.017,VALID,86,VALID,1.00841,
2000-12-20, 00:59:00,VALID,916.299,VALID,0,VALID,99.6239,VALID,-0.169808,VALID,19.0309,VALID,105,VALID,0.473661,
2000-12-20, 01:00:00,VALID,916.312,VALID,0,VALID,99.5997,VALID,-0.118866,VALID,18.9921,VALID,123,VALID,1.17558,
2000-12-20, 01:01:00,VALID,916.285,VALID,0,VALID,99.6162,VALID,-0.152827,VALID,18.9797,VALID,99,VALID,1.19665,
2000-12-20, 01:02:00,VALID,916.304,VALID,0,VALID,99.6226,VALID,-0.135847,VALID,18.9785,VALID,93,VALID,1.68077,
2000-12-20, 01:03:00,VALID,916.31,VALID,0,VALID,99.634,VALID,-0.135847,VALID,19.0053,VALID,98,VALID,1.38715,
2000-12-20, 01:04:00,VALID,916.326,VALID,0,VALID,99.6302,VALID,-0.101885,VALID,18.9817,VALID,94,VALID,0.950521,
2000-12-20, 01:05:00,VALID,916.308,VALID,0,VALID,99.6442,VALID,-0.0169808,VALID,19.0103,VALID,84,VALID,0.969984,
2000-12-20, 01:06:00,VALID,916.306,VALID,0,VALID,99.6175,VALID,-0.0679233,VALID,18.9616,VALID,74,VALID,1.04883,
2000-12-20, 01:07:00,VALID,916.295,VALID,0,VALID,99.6315,VALID,-0.0339617,VALID,18.9616,VALID,97,VALID,2.18685,
2000-12-20, 01:08:00,VALID,916.252,VALID,0,VALID,99.6315,VALID,-0.0509425,VALID,18.9618,VALID,99,VALID,1.46299,
2000-12-20, 01:09:00,VALID,916.242,VALID,0,VALID,99.6188,VALID,-0.0339617,VALID,18.9452,VALID,93,VALID,1.26563,
2000-12-20, 01:10:00,VALID,916.205,VALID,0,VALID,99.6226,VALID,-0.0509425,VALID,18.9522,VALID,77,VALID,1.16153,
2000-12-20, 01:11:00,VALID,916.202,VALID,0,VALID,99.6226,VALID,-0.0509425,VALID,18.9002,VALID,96,VALID,1.55423,
2000-12-20, 01:12:00,VALID,916.185,VALID,0,VALID,99.6251,VALID,-0.0339617,VALID,18.9325,VALID,97,VALID,1.53737,
2000-12-20, 01:13:00,VALID,916.178,VALID,0,VALID,99.634,VALID,-0.0849042,VALID,18.9263,VALID,98,VALID,1.57973,
2000-12-20, 01:14:00,VALID,916.172,VALID,0,VALID,99.6188,VALID,-0.0339617,VALID,18.9198,VALID,100,VALID,1.59687,
2000-12-20, 01:15:00,VALID,916.142,VALID,0,VALID,99.6226,VALID,-0.0679233,VALID,18.9037,VALID,85,VALID,1.30078,
2000-12-20, 01:16:00,VALID,916.132,VALID,0,VALID,99.6124,VALID,-0.0339617,VALID,18.8905,VALID,93,VALID,1.74866,
2000-12-20, 01:17:00,VALID,916.129,VALID,0,VALID,99.6175,VALID,-0.0339617,VALID,18.8677,VALID,102,VALID,1.23763,
2000-12-20, 01:18:00,VALID,916.11,VALID,0,VALID,99.62,VALID,0,VALID,18.8615,VALID,99,VALID,1.46897,
2000-12-20, 01:19:00,VALID,916.1,VALID,0,VALID,99.6277,VALID,-0.0509425,VALID,18.8682,VALID,103,VALID,1.4822,
2000-12-20, 01:20:00,VALID,916.081,VALID,0,VALID,99.6315,VALID,-0.0339617,VALID,18.894,VALID,97,VALID,1.78269,
2000-12-20, 01:21:00,VALID,916.068,VALID,0,VALID,99.6302,VALID,-0.0339617,VALID,18.8645,VALID,105,VALID,1.58702,
2000-12-20, 01:22:00,VALID,916.053,VALID,0,VALID,99.634,VALID,-0.0679233,VALID,18.8652,VALID,96,VALID,0.559896,
2000-12-20, 01:23:00,VALID,916.062,VALID,0,VALID,99.6289,VALID,-0.0679233,VALID,18.8555,VALID,71,VALID,0.801398,
2000-12-20, 01:24:00,VALID,916.033,VALID,0,VALID,99.634,VALID,-0.0169808,VALID,18.8518,VALID,81,VALID,0.569643,
2000-12-20, 01:25:00,VALID,916.031,VALID,0,VALID,99.6429,VALID,-0.0509425,VALID,18.8456,VALID,101,VALID,0.895059,
2000-12-20, 01:26:00,VALID,916.003,VALID,0,VALID,99.6455,VALID,-0.0339617,VALID,18.8518,VALID,88,VALID,1.45611,
2000-12-20, 01:27:00,VALID,915.999,VALID,0,VALID,99.6455,VALID,-0.0679233,VALID,18.8552,VALID,101,VALID,1.69257,
2000-12-20, 01:28:00,VALID,915.97,VALID,0,VALID,99.6429,VALID,-0.0679233,VALID,18.8617,VALID,103,VALID,1.67889,
2000-12-20, 01:29:00,VALID,915.959,VALID,0,VALID,99.6455,VALID,-0.0339617,VALID,18.8677,VALID,107,VALID,1.65089,
2000-12-20, 01:30:00,VALID,915.961,VALID,0,VALID,99.6531,VALID,-0.0509425,VALID,18.8843,VALID,111,VALID,1.2426,
2000-12-20, 01:31:00,VALID,915.963,VALID,0,VALID,99.6468,VALID,-0.0679233,VALID,18.8647,VALID,83,VALID,0.739509,
2000-12-20, 01:32:00,VALID,915.967,VALID,0,VALID,99.6506,VALID,-0.0509425,VALID,18.8548,VALID,100,VALID,1.15842,
2000-12-20, 01:33:00,VALID,915.959,VALID,0,VALID,99.6544,VALID,-0.0509425,VALID,18.8617,VALID,105,VALID,0.644314,
2000-12-20, 01:34:00,VALID,915.974,VALID,0,VALID,99.6493,VALID,-0.0339617,VALID,18.8612,VALID,96,VALID,1.30859,
2000-12-20, 01:35:00,VALID,915.96,VALID,0,VALID,99.6468,VALID,0.0339617,VALID,18.8441,VALID,54,VALID,0.631373,
2000-12-20, 01:36:00,VALID,915.954,VALID,0,VALID,99.6506,VALID,0.0679233,VALID,18.8474,VALID,96,VALID,1.29774,
2000-12-20, 01:37:00,VALID,915.947,VALID,0,VALID,99.6582,VALID,0.0509425,VALID,18.8637,VALID,96,VALID,1.47678,
2000-12-20, 01:38:00,VALID,915.933,VALID,0,VALID,99.6633,VALID,0.0169808,VALID,18.8831,VALID,109,VALID,0.956414,
2000-12-20, 01:39:00,VALID,915.929,VALID,0,VALID,99.6531,VALID,0.0679233,VALID,18.8739,VALID,97,VALID,1.07656,
2000-12-20, 01:40:00,VALID,915.929,VALID,0,VALID,99.6493,VALID,0.0679233,VALID,18.8575,VALID,57,VALID,0.665118,
2000-12-20, 01:41:00,VALID,915.917,VALID,0,VALID,99.6468,VALID,0.0339617,VALID,18.8407,VALID,47,VALID,0.310662,
2000-12-20, 01:42:00,VALID,915.917,VALID,0,VALID,99.6531,VALID,0.0339617,VALID,18.8538,VALID,204,VALID,0.286529,
2000-12-20, 01:43:00,VALID,915.911,VALID,0,VALID,99.6493,VALID,0.0339617,VALID,18.8506,VALID,159,VALID,0.265425,
2000-12-20, 01:44:00,VALID,915.893,VALID,0,VALID,99.6595,VALID,0.0509425,VALID,18.8504,VALID,108,VALID,0.665179,
2000-12-20, 01:45:00,VALID,915.885,VALID,0,VALID,99.6671,VALID,0.0339617,VALID,18.8797,VALID,116,VALID,0.0400905,
2000-12-20, 01:46:00,VALID,915.885,VALID,0,VALID,99.6595,VALID,0.0169808,VALID,18.8797,VALID,130,VALID,0.822768,
2000-12-20, 01:47:00,VALID,915.856,VALID,0,VALID,99.6658,VALID,0.0679233,VALID,18.8829,VALID,93,VALID,0.650608,
2000-12-20, 01:48:00,VALID,915.865,VALID,0,VALID,99.6671,VALID,0.0509425,VALID,18.8956,VALID,111,VALID,0.278212,
2000-12-20, 01:49:00,VALID,915.865,VALID,0,VALID,99.6582,VALID,0,VALID,18.8861,VALID,8,VALID,0.188368,
2000-12-20, 01:50:00,VALID,915.878,VALID,0,VALID,99.662,VALID,0,VALID,18.9037,VALID,124,VALID,0.745271,
2000-12-20, 01:51:00,VALID,915.857,VALID,0,VALID,99.662,VALID,0,VALID,18.9102,VALID,282,VALID,0.203342,
2000-12-20, 01:52:00,VALID,915.857,VALID,0,VALID,99.6544,VALID,0.0169808,VALID,18.8871,VALID,263,VALID,0.557075,
2000-12-20, 01:53:00,VALID,915.835,VALID,0,VALID,99.6518,VALID,0,VALID,18.8905,VALID,120,VALID,0.515214,
2000-12-20, 01:54:00,VALID,915.847,VALID,0,VALID,99.6556,VALID,0,VALID,18.8871,VALID,185,VALID,0.250893,
2000-12-20, 01:55:00,VALID,915.849,VALID,0,VALID,99.6556,VALID,0,VALID,18.8806,VALID,151,VALID,0.381334,
2000-12-20, 01:56:00,VALID,915.844,VALID,0,VALID,99.6569,VALID,-0.0169808,VALID,18.8841,VALID,223,VALID,0,
2000-12-20, 01:57:00,VALID,915.835,VALID,0,VALID,99.6595,VALID,0,VALID,18.8804,VALID,115,VALID,0.229096,
2000-12-20, 01:58:00,VALID,915.827,VALID,0,VALID,99.662,VALID,0,VALID,18.8935,VALID,121,VALID,0.03125,
2000-12-20, 01:59:00,VALID,915.815,VALID,0,VALID,99.6696,VALID,0,VALID,18.9166,VALID,127,VALID,0.162277,
2000-12-20, 02:00:00,VALID,915.805,VALID,0,VALID,99.6493,VALID,0,VALID,18.9,VALID,78,VALID,0.627262,
2000-12-20, 02:01:00,VALID,915.81,VALID,0,VALID,99.6455,VALID,0,VALID,18.8871,VALID,287,VALID,0.579911,
2000-12-20, 02:02:00,VALID,915.841,VALID,0,VALID,99.6569,VALID,0,VALID,18.8841,VALID,274,VALID,0.586589,
2000-12-20, 02:03:00,VALID,915.813,VALID,0,VALID,99.6455,VALID,0,VALID,18.8744,VALID,119,VALID,1.92839,
2000-12-20, 02:04:00,VALID,915.771,VALID,0,VALID,99.6506,VALID,-0.0169808,VALID,18.8744,VALID,327,VALID,1.23546,
2000-12-20, 02:05:00,VALID,915.798,VALID,0,VALID,99.648,VALID,-0.0169808,VALID,18.8712,VALID,218,VALID,0.273643,
2000-12-20, 02:06:00,VALID,915.793,VALID,0,VALID,99.6417,VALID,0,VALID,18.8642,VALID,260,VALID,0.315755,
2000-12-20, 02:07:00,VALID,915.794,VALID,0,VALID,99.6544,VALID,0.0169808,VALID,18.8679,VALID,157,VALID,0.0789931,
2000-12-20, 02:08:00,VALID,915.786,VALID,0,VALID,99.6671,VALID,0,VALID,18.8714,VALID,91,VALID,0,
2000-12-20, 02:09:00,VALID,915.794,VALID,0,VALID,99.6455,VALID,0,VALID,18.8712,VALID,144,VALID,0.0129464,
2000-12-20, 02:10:00,VALID,915.783,VALID,0,VALID,99.6582,VALID,0.0169808,VALID,18.8739,VALID,168,VALID,0.0793919,
2000-12-20, 02:11:00,VALID,915.766,VALID,0,VALID,99.6518,VALID,0.0169808,VALID,18.8838,VALID,347,VALID,0.795956,
2000-12-20, 02:12:00,VALID,915.763,VALID,0,VALID,99.6556,VALID,0.0509425,VALID,18.8797,VALID,74,VALID,0.368243,
2000-12-20, 02:13:00,VALID,915.753,VALID,0,VALID,99.6646,VALID,0,VALID,18.9002,VALID,142,VALID,0.793069,
2000-12-20, 02:14:00,VALID,915.716,VALID,0,VALID,99.6595,VALID,0.0339617,VALID,18.906,VALID,30,VALID,1.14375,
2000-12-20, 02:15:00,VALID,915.714,VALID,0,VALID,99.6569,VALID,0,VALID,18.8935,VALID,263,VALID,0.359375,
2000-12-20, 02:16:00,VALID,915.712,VALID,0,VALID,99.6531,VALID,0,VALID,18.9002,VALID,145,VALID,0.51317,
2000-12-20, 02:17:00,VALID,915.704,VALID,0,VALID,99.6531,VALID,0,VALID,18.897,VALID,184,VALID,0.501519,
2000-12-20, 02:18:00,VALID,915.711,VALID,0,VALID,99.6518,VALID,0,VALID,18.903,VALID,96,VALID,0.209201,
2000-12-20, 02:19:00,VALID,915.729,VALID,0,VALID,99.6531,VALID,0.0169808,VALID,18.8968,VALID,99,VALID,0.132813,
2000-12-20, 02:20:00,VALID,915.729,VALID,0,VALID,99.6518,VALID,0,VALID,18.9035,VALID,219,VALID,0,
2000-12-20, 02:21:00,VALID,915.717,VALID,0,VALID,99.6658,VALID,0,VALID,18.906,VALID,94,VALID,0.445964,
2000-12-20, 02:22:00,VALID,915.721,VALID,0,VALID,99.6506,VALID,0.0169808,VALID,18.9618,VALID,84,VALID,0.0243056,
2000-12-20, 02:23:00,VALID,915.722,VALID,0,VALID,99.6582,VALID,0,VALID,18.9551,VALID,238,VALID,0.0289885,
2000-12-20, 02:24:00,VALID,915.716,VALID,0,VALID,99.6442,VALID,0.0169808,VALID,18.942,VALID,232,VALID,0.555357,
2000-12-20, 02:25:00,VALID,915.708,VALID,0,VALID,99.6607,VALID,0.0339617,VALID,18.938,VALID,107,VALID,0.462416,
2000-12-20, 02:26:00,VALID,915.706,VALID,0,VALID,99.6595,VALID,0,VALID,18.9648,VALID,172,VALID,0.307445,
2000-12-20, 02:27:00,VALID,915.704,VALID,0,VALID,99.6429,VALID,0.0169808,VALID,18.9547,VALID,153,VALID,0.330448,
2000-12-20, 02:28:00,VALID,915.693,VALID,0,VALID,99.6569,VALID,0,VALID,18.9584,VALID,105,VALID,0.063101,
2000-12-20, 02:29:00,VALID,915.687,VALID,0,VALID,99.6417,VALID,0.0169808,VALID,18.9417,VALID,231,VALID,0,
2000-12-20, 02:30:00,VALID,915.675,VALID,0,VALID,99.6506,VALID,0,VALID,18.9355,VALID,164,VALID,0.450452,
2000-12-20, 02:31:00,VALID,915.653,VALID,0,VALID,99.6289,VALID,0.0169808,VALID,18.9129,VALID,237,VALID,0.795089,
2000-12-20, 02:32:00,VALID,915.657,VALID,0,VALID,99.6353,VALID,0,VALID,18.8931,VALID,269,VALID,0.495009,
2000-12-20, 02:33:00,VALID,915.651,VALID,0,VALID,99.6289,VALID,0.0339617,VALID,18.8838,VALID,324,VALID,0.628689,
2000-12-20, 02:34:00,VALID,915.663,VALID,0,VALID,99.6493,VALID,0,VALID,18.9062,VALID,112,VALID,0.342014,
2000-12-20, 02:35:00,VALID,915.671,VALID,0,VALID,99.6531,VALID,-0.0849042,VALID,18.9243,VALID,106,VALID,0,
2000-12-20, 02:36:00,VALID,915.662,VALID,0,VALID,99.6518,VALID,-0.101885,VALID,18.924,VALID,116,VALID,0,
2000-12-20, 02:37:00,VALID,915.654,VALID,0,VALID,99.6506,VALID,-0.101885,VALID,18.9111,VALID,281,VALID,0,
2000-12-20, 02:38:00,VALID,915.665,VALID,0,VALID,99.6328,VALID,-0.101885,VALID,18.9042,VALID,271,VALID,0,
2000-12-20, 02:39:00,VALID,915.66,VALID,0,VALID,99.6378,VALID,-0.101885,VALID,18.9009,VALID,148,VALID,0,
2000-12-20, 02:40:00,VALID,915.658,VALID,0,VALID,99.6391,VALID,-0.0849042,VALID,18.9079,VALID,152,VALID,0,
2000-12-20, 02:41:00,VALID,915.639,VALID,0,VALID,99.648,VALID,-0.101885,VALID,18.9079,VALID,173,VALID,0.00275735,
2000-12-20, 02:42:00,VALID,915.633,VALID,0,VALID,99.6531,VALID,-0.101885,VALID,18.9178,VALID,83,VALID,0.35473,
2000-12-20, 02:43:00,VALID,915.639,VALID,0,VALID,99.6468,VALID,-0.101885,VALID,18.9277,VALID,113,VALID,0.477163,
2000-12-20, 02:44:00,VALID,915.635,VALID,0,VALID,99.6518,VALID,-0.0849042,VALID,18.921,VALID,128,VALID,0.0386161,
2000-12-20, 02:45:00,VALID,915.608,VALID,0,VALID,99.6442,VALID,-0.0849042,VALID,18.9307,VALID,91,VALID,0.6581,
2000-12-20, 02:46:00,VALID,915.601,VALID,0,VALID,99.6531,VALID,-0.0849042,VALID,18.924,VALID,100,VALID,1.05268,
2000-12-20, 02:47:00,VALID,915.575,VALID,0,VALID,99.6506,VALID,-0.101885,VALID,18.9372,VALID,98,VALID,1.1174,
2000-12-20, 02:48:00,VALID,915.588,VALID,0,VALID,99.6531,VALID,-0.0679233,VALID,18.9499,VALID,16,VALID,0.167752,
2000-12-20, 02:49:00,VALID,915.598,VALID,0,VALID,99.6506,VALID,-0.0679233,VALID,18.927,VALID,349,VALID,0.0421007,
2000-12-20, 02:50:00,VALID,915.609,VALID,0,VALID,99.6429,VALID,0,VALID,18.9228,VALID,94,VALID,0.423725,
2000-12-20, 02:51:00,VALID,915.596,VALID,0,VALID,99.6417,VALID,-0.0169808,VALID,18.9455,VALID,97,VALID,0.864366,
2000-12-20, 02:52:00,VALID,915.597,VALID,0,VALID,99.6404,VALID,0,VALID,18.9519,VALID,99,VALID,0.841146,
2000-12-20, 02:53:00,VALID,915.582,VALID,0,VALID,99.6366,VALID,0,VALID,18.9256,VALID,92,VALID,0.855058,
2000-12-20, 02:54:00,VALID,915.592,VALID,0,VALID,99.6429,VALID,-0.0169808,VALID,18.9653,VALID,106,VALID,0.919643,
2000-12-20, 02:55:00,VALID,915.583,VALID,0,VALID,99.6366,VALID,-0.0169808,VALID,18.9653,VALID,82,VALID,0.459248,
2000-12-20, 02:56:00,VALID,915.569,VALID,0,VALID,99.634,VALID,-0.0169808,VALID,18.9584,VALID,111,VALID,0.261949,
2000-12-20, 02:57:00,VALID,915.559,VALID,0,VALID,99.62,VALID,0,VALID,18.9392,VALID,108,VALID,0.424409,
2000-12-20, 02:58:00,VALID,915.557,VALID,0,VALID,99.634,VALID,-0.0339617,VALID,18.9524,VALID,93,VALID,1.0645,
2000-12-20, 02:59:00,VALID,915.535,VALID,0,VALID,99.6277,VALID,0,VALID,18.9328,VALID,70,VALID,1.41629,
2000-12-20, 03:00:00,VALID,915.51,VALID,0,VALID,99.6137,VALID,0,VALID,18.9035,VALID,96,VALID,0.527138,
2000-12-20, 03:01:00,VALID,915.507,VALID,0,VALID,99.6328,VALID,-0.0169808,VALID,18.9233,VALID,87,VALID,0.379241,
2000-12-20, 03:02:00,VALID,915.507,VALID,0,VALID,99.6264,VALID,-0.0509425,VALID,18.9164,VALID,98,VALID,0.96875,
2000-12-20, 03:03:00,VALID,915.48,VALID,0,VALID,99.6328,VALID,-0.0169808,VALID,18.9323,VALID,99,VALID,0.455512,
2000-12-20, 03:04:00,VALID,915.465,VALID,0,VALID,99.6404,VALID,-0.0339617,VALID,18.9422,VALID,224,VALID,0.173828,
2000-12-20, 03:05:00,VALID,915.479,VALID,0,VALID,99.6366,VALID,0,VALID,18.9291,VALID,265,VALID,0.0801809,
2000-12-20, 03:06:00,VALID,915.482,VALID,0,VALID,99.6213,VALID,0,VALID,18.9395,VALID,261,VALID,0.0245226,
2000-12-20, 03:07:00,VALID,915.491,VALID,0,VALID,99.6366,VALID,0,VALID,18.9228,VALID,113,VALID,0.36263,
2000-12-20, 03:08:00,VALID,915.473,VALID,0,VALID,99.6455,VALID,0,VALID,18.9492,VALID,92,VALID,0.911801,
2000-12-20, 03:09:00,VALID,915.469,VALID,0,VALID,99.6391,VALID,-0.0169808,VALID,18.9616,VALID,92,VALID,0.459375,
2000-12-20, 03:10:00,VALID,915.467,VALID,0,VALID,99.6429,VALID,-0.0169808,VALID,18.9648,VALID,99,VALID,0.824958,
2000-12-20, 03:11:00,VALID,915.464,VALID,0,VALID,99.6417,VALID,-0.0169808,VALID,18.9688,VALID,74,VALID,0.695083,
2000-12-20, 03:12:00,VALID,915.46,VALID,0,VALID,99.6277,VALID,-0.0339617,VALID,18.9457,VALID,89,VALID,0.490498,
2000-12-20, 03:13:00,VALID,915.45,VALID,0,VALID,99.634,VALID,-0.0169808,VALID,18.9194,VALID,3,VALID,0.319511,
2000-12-20, 03:14:00,VALID,915.459,VALID,0,VALID,99.6353,VALID,-0.0169808,VALID,18.9261,VALID,92,VALID,0.876339,
2000-12-20, 03:15:00,VALID,915.455,VALID,0,VALID,99.6277,VALID,0,VALID,18.9422,VALID,78,VALID,0.0746299,
2000-12-20, 03:16:00,VALID,915.458,VALID,0,VALID,99.634,VALID,-0.0169808,VALID,18.9457,VALID,154,VALID,0.471429,
2000-12-20, 03:17:00,VALID,915.44,VALID,0,VALID,99.6061,VALID,-0.0169808,VALID,18.9166,VALID,138,VALID,0.50217,
2000-12-20, 03:18:00,VALID,915.403,VALID,0,VALID,99.6137,VALID,0,VALID,18.8838,VALID,110,VALID,0.545139,
2000-12-20, 03:19:00,VALID,915.424,VALID,0,VALID,99.6099,VALID,-0.0339617,VALID,18.9009,VALID,105,VALID,0,
2000-12-20, 03:20:00,VALID,915.444,VALID,0,VALID,99.6137,VALID,-0.0169808,VALID,18.8846,VALID,127,VALID,0,
2000-12-20, 03:21:00,VALID,915.418,VALID,0,VALID,99.6162,VALID,0,VALID,18.8813,VALID,155,VALID,0,
2000-12-20, 03:22:00,VALID,915.406,VALID,0,VALID,99.6086,VALID,0,VALID,18.8808,VALID,164,VALID,0,
2000-12-20, 03:23:00,VALID,915.433,VALID,0,VALID,99.62,VALID,-0.0339617,VALID,18.891,VALID,164,VALID,0,
2000-12-20, 03:24:00,VALID,915.448,VALID,0,VALID,99.6226,VALID,0,VALID,18.8875,VALID,130,VALID,0.127679,
2000-12-20, 03:25:00,VALID,915.456,VALID,0,VALID,99.6251,VALID,0,VALID,18.9007,VALID,110,VALID,0.147171,
2000-12-20, 03:26:00,VALID,915.458,VALID,0,VALID,99.6226,VALID,0,VALID,18.9067,VALID,9,VALID,0.0523897,
2000-12-20, 03:27:00,VALID,915.493,VALID,0,VALID,99.6302,VALID,0,VALID,18.9002,VALID,287,VALID,0.097973,
2000-12-20, 03:28:00,VALID,915.495,VALID,0,VALID,99.6315,VALID,-0.0339617,VALID,18.9132,VALID,72,VALID,0.441506,
2000-12-20, 03:29:00,VALID,915.496,VALID,0,VALID,99.6226,VALID,-0.0339617,VALID,18.9231,VALID,72,VALID,0.87433,
2000-12-20, 03:30:00,VALID,915.485,VALID,0,VALID,99.6137,VALID,-0.0679233,VALID,18.9171,VALID,46,VALID,0.422286,
2000-12-20, 03:31:00,VALID,915.489,VALID,0,VALID,99.6162,VALID,-0.0339617,VALID,18.8972,VALID,276,VALID,0.878795,
2000-12-20, 03:32:00,VALID,915.469,VALID,0,VALID,99.6175,VALID,-0.0169808,VALID,18.8878,VALID,288,VALID,0.386936,
2000-12-20, 03:33:00,VALID,915.486,VALID,0,VALID,99.6022,VALID,-0.0169808,VALID,18.8816,VALID,239,VALID,0.577474,
2000-12-20, 03:34:00,VALID,915.464,VALID,0,VALID,99.6188,VALID,-0.0169808,VALID,18.8677,VALID,137,VALID,0.776042,
2000-12-20, 03:35:00,VALID,915.449,VALID,0,VALID,99.6061,VALID,-0.0169808,VALID,18.8518,VALID,79,VALID,0.223684,